Weather History for KAJG - February, 2013

Change the Weather History Date:

Saturday, February 23, 2013

  Actual Average (KLWV) Record (KLWV)
Temperature  
Mean Temperature 34 °F 38 °F  
Max Temperature 39 °F 47 °F 67 °F (1992)
Min Temperature 28 °F 29 °F 2 °F (2015)
Degree Days  
Heating Degree Days 32 27  
Month to date heating degree days 695  
Since 1 July heating degree days 3546  
Cooling Degree Days 0 0  
Month to date cooling degree days 0  
Year to date cooling degree days 0  
Moisture  
Dew Point 26 °F    
Average Humidity 77    
Maximum Humidity 93    
Minimum Humidity 61    
Precipitation  
Precipitation 0.00 in 0.07 in 2.35 in (1975)
Month to date precipitation 1.71  
Year to date precipitation 4.09  
Sea Level Pressure  
Sea Level Pressure 30.02 in    
Wind  
Wind Speed 6 mph (WNW)    
Max Wind Speed 10 mph    
Max Gust Speed -    
Visibility 10 miles    
Events      
T = Trace of Precipitation, MM = Missing Value Source: NWS Daily Summary

Daily Weather History Graph

Daily Weather History Graph

Search for Another Location

Airport or City:

Trip Planner

Search our weather history database for the weather conditions in past years. The results will help you decide how hot, cold, wet, or windy it might be!

Date:

Astronomy

Feb. 23, 2013 Rise Set
Actual Time 6:31 AM CST 5:37 PM CST
Civil Twilight 6:04 AM CST 6:04 PM CST
Nautical Twilight 5:33 AM CST 6:35 PM CST
Astronomical Twilight 5:02 AM CST 7:06 PM CST
Moon 3:48 PM CST (2/23) 4:52 AM CST (2/23)
Length of Visible Light 12h 00m
Length of Day
11h 06m
Waxing Gibbous, 95% of the Moon is Illuminated
Feb 23
Waxing Gibbous
Feb 25
Full
Mar 4
Last Quarter
Mar 11
New
Mar 19
First Quarter

Hourly Weather History & Observations

Time (CST) Temp. Windchill Dew Point Humidity Pressure Visibility Wind Dir Wind Speed Gust Speed Precip Events Conditions
12:15 AM 32.0 °F 24.8 °F 26.6 °F 80% 30.05 in 10.0 mi WNW 8.1 mph - N/A   Clear
12:35 AM 32.0 °F 24.8 °F 26.6 °F 80% 30.05 in 10.0 mi West 8.1 mph - N/A   Clear
12:55 AM 32.0 °F 25.6 °F 26.6 °F 80% 30.05 in 10.0 mi West 6.9 mph - N/A   Clear
1:15 AM 32.0 °F 26.4 °F 26.6 °F 80% 30.05 in 10.0 mi West 5.8 mph - N/A   Clear
1:35 AM 30.2 °F 24.3 °F 26.6 °F 86% 30.05 in 10.0 mi West 5.8 mph - N/A   Clear
1:55 AM 30.2 °F 24.3 °F 26.6 °F 86% 30.05 in 10.0 mi West 5.8 mph - N/A   Clear
2:15 AM 30.2 °F 25.4 °F 26.6 °F 86% 30.04 in 10.0 mi West 4.6 mph - N/A   Clear
2:35 AM 30.2 °F 25.4 °F 26.6 °F 86% 30.04 in 10.0 mi West 4.6 mph - N/A   Clear
2:55 AM 30.2 °F 25.4 °F 26.6 °F 86% 30.04 in 10.0 mi WSW 4.6 mph - N/A   Clear
3:15 AM 30.2 °F 25.4 °F 26.6 °F 86% 30.04 in 10.0 mi WSW 4.6 mph - N/A   Clear
3:35 AM 28.4 °F 23.3 °F 26.6 °F 93% 30.03 in 10.0 mi WSW 4.6 mph - N/A   Clear
3:55 AM 30.2 °F 23.4 °F 26.6 °F 86% 30.04 in 10.0 mi West 6.9 mph - N/A   Clear
4:15 AM 30.2 °F 23.4 °F 26.6 °F 86% 30.04 in 10.0 mi West 6.9 mph - N/A   Clear
4:35 AM 30.2 °F 23.4 °F 26.6 °F 86% 30.05 in 10.0 mi WNW 6.9 mph - N/A   Clear
4:55 AM 30.2 °F 23.4 °F 24.8 °F 80% 30.05 in 10.0 mi WNW 6.9 mph - N/A   Clear
5:15 AM 30.2 °F 21.9 °F 24.8 °F 80% 30.05 in 10.0 mi WNW 9.2 mph - N/A   Clear
5:35 AM 28.4 °F 20.4 °F 23.0 °F 80% 30.05 in 10.0 mi WNW 8.1 mph - N/A   Clear
5:55 AM 28.4 °F 21.2 °F 23.0 °F 80% 30.04 in 10.0 mi WNW 6.9 mph - N/A   Clear
6:15 AM 28.4 °F 23.3 °F 23.0 °F 80% 30.04 in 10.0 mi WNW 4.6 mph - N/A   Clear
6:35 AM 28.4 °F 24.6 °F 23.0 °F 80% 30.04 in 10.0 mi WNW 3.5 mph - N/A   Clear
6:55 AM 28.4 °F - 23.0 °F 80% 30.04 in 10.0 mi Calm Calm - N/A   Clear
7:15 AM 28.4 °F - 23.0 °F 80% 30.04 in 10.0 mi Calm Calm - N/A   Clear
7:35 AM 28.4 °F - 23.0 °F 80% 30.04 in 10.0 mi Calm Calm - N/A   Clear
7:55 AM 30.2 °F - 24.8 °F 80% 30.04 in 10.0 mi Calm Calm - N/A   Clear
8:15 AM 30.2 °F 24.3 °F 24.8 °F 80% 30.05 in 10.0 mi WNW 5.8 mph - N/A   Clear
8:35 AM 32.0 °F 25.6 °F 23.0 °F 69% 30.05 in 10.0 mi WNW 6.9 mph - N/A   Clear
8:55 AM 32.0 °F 26.4 °F 24.8 °F 75% 30.04 in 10.0 mi West 5.8 mph - N/A   Clear
9:15 AM 32.0 °F 27.5 °F 23.0 °F 69% 30.04 in 10.0 mi WNW 4.6 mph - N/A   Clear
9:35 AM 32.0 °F 26.4 °F 24.8 °F 75% 30.04 in 10.0 mi West 5.8 mph - N/A   Clear
9:55 AM 32.0 °F 26.4 °F 24.8 °F 75% 30.04 in 10.0 mi West 5.8 mph - N/A   Clear
10:15 AM 32.0 °F 25.6 °F 24.8 °F 75% 30.04 in 10.0 mi West 6.9 mph - N/A   Clear
10:35 AM 33.8 °F 28.6 °F 26.6 °F 75% 30.04 in 10.0 mi West 5.8 mph - N/A   Clear
10:55 AM 33.8 °F 29.6 °F 24.8 °F 70% 30.04 in 10.0 mi SW 4.6 mph - N/A   Clear
11:15 AM 33.8 °F 29.6 °F 26.6 °F 75% 30.03 in 10.0 mi West 4.6 mph - N/A   Clear
11:35 AM 33.8 °F 29.6 °F 26.6 °F 75% 30.02 in 10.0 mi West 4.6 mph - N/A   Clear
11:55 AM 35.6 °F 31.7 °F 26.6 °F 70% 30.01 in 10.0 mi NNW 4.6 mph - N/A   Clear
12:15 PM 35.6 °F 30.7 °F 26.6 °F 70% 30.01 in 10.0 mi WNW 5.8 mph - N/A   Clear
12:35 PM 35.6 °F 30.7 °F 26.6 °F 70% 30.01 in 10.0 mi WSW 5.8 mph - N/A   Clear
12:55 PM 37.4 °F 30.3 °F 28.4 °F 70% 30.00 in 10.0 mi West 10.4 mph - N/A   Clear
1:15 PM 37.4 °F 32.8 °F 28.4 °F 70% 29.99 in 10.0 mi West 5.8 mph - N/A   Clear
1:35 PM 37.4 °F 31.4 °F 28.4 °F 70% 29.99 in 10.0 mi WNW 8.1 mph - N/A   Scattered Clouds
1:55 PM 37.4 °F 30.8 °F 28.4 °F 70% 29.99 in 10.0 mi WNW 9.2 mph - N/A   Clear
2:15 PM 37.4 °F 30.8 °F 28.4 °F 70% 29.98 in 10.0 mi West 9.2 mph - N/A   Clear
2:35 PM 39.2 °F 35.0 °F 28.4 °F 65% 29.98 in 10.0 mi West 5.8 mph - N/A   Clear
2:55 PM 39.2 °F 33.6 °F 28.4 °F 65% 29.98 in 10.0 mi West 8.1 mph - N/A   Clear
3:15 PM 39.2 °F 34.2 °F 26.6 °F 61% 29.98 in 10.0 mi West 6.9 mph - N/A   Clear
3:35 PM 39.2 °F 33.6 °F 28.4 °F 65% 29.97 in 10.0 mi WNW 8.1 mph - N/A   Clear
3:55 PM 37.4 °F 30.8 °F 26.6 °F 65% 29.97 in 10.0 mi NW 9.2 mph - N/A   Clear
4:15 PM 37.4 °F 30.3 °F 28.4 °F 70% 29.98 in 10.0 mi WNW 10.4 mph - N/A   Clear
4:35 PM 37.4 °F 31.4 °F 28.4 °F 70% 29.99 in 10.0 mi NW 8.1 mph - N/A   Clear
4:55 PM 35.6 °F 29.2 °F 28.4 °F 75% 29.99 in 10.0 mi WNW 8.1 mph - N/A   Clear
5:15 PM 35.6 °F 29.9 °F 28.4 °F 75% 29.99 in 10.0 mi WNW 6.9 mph - N/A   Clear
5:35 PM 35.6 °F 29.9 °F 28.4 °F 75% 30.00 in 10.0 mi NW 6.9 mph - N/A   Clear
5:55 PM 33.8 °F 28.6 °F 26.6 °F 75% 30.00 in 10.0 mi NW 5.8 mph - N/A   Clear
6:15 PM 33.8 °F 27.7 °F 28.4 °F 81% 30.00 in 10.0 mi NW 6.9 mph - N/A   Clear
6:55 PM 33.8 °F 27.7 °F 26.6 °F 75% 30.01 in 10.0 mi WNW 6.9 mph - N/A   Clear
7:15 PM 33.8 °F 27.7 °F 28.4 °F 81% 30.01 in 10.0 mi WNW 6.9 mph - N/A   Clear
7:35 PM 33.8 °F 27.0 °F 26.6 °F 75% 30.01 in 10.0 mi WNW 8.1 mph - N/A   Clear
7:55 PM 32.0 °F 26.4 °F 26.6 °F 80% 30.02 in 10.0 mi NW 5.8 mph - N/A   Clear
8:15 PM 32.0 °F 27.5 °F 26.6 °F 80% 30.01 in 10.0 mi NW 4.6 mph - N/A   Clear
8:35 PM 32.0 °F 26.4 °F 26.6 °F 80% 30.02 in 10.0 mi WNW 5.8 mph - N/A   Clear
9:15 PM 32.0 °F 27.5 °F 26.6 °F 80% 30.02 in 10.0 mi WNW 4.6 mph - N/A   Clear
9:35 PM 32.0 °F 26.4 °F 26.6 °F 80% 30.03 in 10.0 mi WNW 5.8 mph - N/A   Clear
9:55 PM 32.0 °F 25.6 °F 26.6 °F 80% 30.03 in 10.0 mi WNW 6.9 mph - N/A   Clear
10:15 PM 32.0 °F 26.4 °F 26.6 °F 80% 30.03 in 10.0 mi NW 5.8 mph - N/A   Clear
10:35 PM 32.0 °F 28.7 °F 26.6 °F 80% 30.02 in 10.0 mi NW 3.5 mph - N/A   Clear
10:55 PM 32.0 °F 28.7 °F 26.6 °F 80% 30.02 in 10.0 mi WNW 3.5 mph - N/A   Clear
11:15 PM 30.2 °F 26.7 °F 26.6 °F 86% 30.03 in 10.0 mi WNW 3.5 mph - N/A   Clear
11:35 PM 30.2 °F 26.7 °F 26.6 °F 86% 30.03 in 10.0 mi NNW 3.5 mph - N/A   Clear
11:55 PM 30.2 °F 25.4 °F 26.6 °F 86% 30.02 in 10.0 mi North 4.6 mph - N/A   Clear